{"data":{"norad_id":56545,"epoch":"2026-09-20T13:24:59.572512Z","epoch_age_seconds":109660,"freshness":"FRESH","line1":"1 56545U 23065AU  26263.55902283 -.00000096  00000+0  60526-5 0  9993","line2":"2 56545  43.0033 203.1774 0001578 266.1886  93.8785 15.27575820186278","mean_motion":15.2757582,"eccentricity":0.0001578,"inclination_deg":43.0033,"raan_deg":203.1774,"arg_perigee_deg":266.1886,"mean_anomaly_deg":93.8785,"bstar":6.0526e-6,"rev_number":18627,"period_min":94.267006661574,"perigee_km":481.97891535089,"apogee_km":484.14430963299,"semimajor_km":6861.1986124919,"source":"CELESTRAK","updated_at":"2026-09-21T09:00:33.477521Z"}}